| time (UTC) | temp F | wind direction | speed knots | gust knots | rain 1hr in | rain 24hr in | rain mn in | humidity % | barometer mb |
| 20260506051020 | 54 | 0.0 | 0.0 | 0.00 | 0.63 | 0.00 | 86 | 1001.6 | |
| 20260506045020 | 54 | 0.0 | 0.0 | 0.00 | 0.63 | 0.00 | 86 | 1001.7 | |
| 20260506044019 | 54 | 0.0 | 0.0 | 0.00 | 0.67 | 0.00 | 87 | 1001.7 | |
| 20260506043019 | 53 | 0.0 | 0.0 | 0.00 | 0.67 | 0.00 | 87 | 1001.6 | |
| 20260506042021 | 52 | 0.0 | 0.0 | 0.00 | 0.67 | 0.00 | 87 | 1001.6 | |
| 20260506041019 | 52 | 0.0 | 0.0 | 0.00 | 0.67 | 0.00 | 87 | 1001.6 | |
| 20260506040019 | 52 | 0.0 | 0.0 | 0.00 | 0.67 | 0.00 | 87 | 1001.6 | |
| 20260506035032 | 52 | 0.0 | 0.0 | 0.00 | 0.67 | 0.00 | 87 | 1001.7 | |
| 20260506034019 | 52 | 0.0 | 0.0 | 0.00 | 0.67 | 0.00 | 87 | 1001.7 | |
| 20260506033019 | 52 | 0.0 | 0.0 | 0.00 | 0.67 | 0.00 | 87 | 1001.6 | |
| 20260506032020 | 52 | 0.0 | 0.0 | 0.00 | 0.67 | 0.00 | 87 | 1001.6 | |
| 20260506031019 | 52 | 0.0 | 0.0 | 0.00 | 0.67 | 0.00 | 86 | 1001.6 | |
| 20260506030019 | 53 | 154 | 0.9 | 0.9 | 0.00 | 0.67 | 0.00 | 85 | 1001.7 |
| 20260506025019 | 54 | 170 | 0.9 | 0.9 | 0.00 | 0.67 | 0.00 | 85 | 1001.8 |
| 20260506024019 | 54 | 0.0 | 0.0 | 0.00 | 0.67 | 0.00 | 86 | 1001.8 | |
| 20260506023020 | 54 | 0.0 | 0.0 | 0.00 | 0.67 | 0.00 | 86 | 1001.8 | |
| 20260506022019 | 54 | 0.0 | 0.0 | 0.00 | 0.67 | 0.00 | 86 | 1002.8 | |
| 20260506021020 | 54 | 0.0 | 0.0 | 0.00 | 0.67 | 0.00 | 86 | 1002.9 | |
| 20260506020019 | 54 | 0.0 | 0.0 | 0.00 | 0.67 | 0.00 | 86 | 1001.8 | |
| 20260506015019 | 54 | 0.0 | 0.0 | 0.00 | 0.67 | 0.00 | 86 | 1002.8 | |
| 20260506014020 | 54 | 0.0 | 0.0 | 0.00 | 0.67 | 0.00 | 86 | 1001.9 | |
| 20260506013019 | 54 | 0.0 | 0.0 | 0.00 | 0.67 | 0.00 | 86 | 1001.9 | |
| 20260506012019 | 54 | 0.0 | 0.0 | 0.00 | 0.67 | 0.00 | 86 | 1001.9 | |
| 20260506011019 | 54 | 344 | 0.9 | 0.9 | 0.00 | 0.67 | 0.00 | 85 | 1001.8 |
| 20260506010019 | 54 | 316 | 0.9 | 0.9 | 0.00 | 0.67 | 0.00 | 86 | 1002.8 |
| 20260506005019 | 54 | 0.0 | 0.0 | 0.00 | 0.67 | 0.00 | 87 | 1002.8 | |
| 20260506004019 | 54 | 0.0 | 0.0 | 0.00 | 0.67 | 0.00 | 88 | 1002.8 | |
| 20260506003019 | 53 | 0.0 | 0.0 | 0.00 | 0.67 | 0.00 | 88 | 1002.7 | |
| 20260506002020 | 52 | 0.0 | 0.0 | 0.00 | 0.67 | 0.00 | 88 | 1002.7 | |
| 20260506001020 | 52 | 0.0 | 0.0 | 0.00 | 0.67 | 0.00 | 89 | 1002.7 | |
| 20260506000020 | 52 | 0.0 | 0.0 | 0.00 | 0.67 | 0.00 | 89 | 1002.7 | |
| 20260505235020 | 52 | 0.0 | 0.0 | 0.00 | 0.67 | 0.00 | 89 | 1002.6 | |
| 20260505234019 | 52 | 0.0 | 0.0 | 0.00 | 0.67 | 0.00 | 89 | 1002.7 | |
| 20260505233019 | 52 | 0.0 | 0.0 | 0.00 | 0.67 | 0.00 | 89 | 1002.6 | |
| 20260505232019 | 52 | 0.0 | 0.0 | 0.00 | 0.67 | 0.00 | 89 | 1002.6 | |
| 20260505231020 | 52 | 0.0 | 0.0 | 0.00 | 0.67 | 0.00 | 89 | 1002.6 | |
| 20260505230020 | 52 | 0.0 | 0.0 | 0.00 | 0.67 | 0.00 | 89 | 1002.6 | |
| 20260505225019 | 52 | 0.0 | 0.0 | 0.00 | 0.67 | 0.00 | 89 | 1002.5 | |
| 20260505224020 | 52 | 0.0 | 0.0 | 0.00 | 0.67 | 0.00 | 89 | 1002.5 | |
| 20260505223019 | 52 | 0.0 | 0.0 | 0.04 | 0.67 | 0.00 | |||
| 20260505220038 | 52 | 0.0 | 0.0 | 0.16 | 0.67 | 0.67 | 89 | 1003.5 | |
| 20260505215016 | 52 | 0.0 | 0.0 | 0.16 | 0.67 | 0.67 | 89 | 1003.5 | |
| 20260505214017 | 52 | 0.0 | 0.0 | 0.20 | 0.67 | 0.67 | 89 | 1003.5 | |
| 20260505213019 | 52 | 0.0 | 0.0 | 0.20 | 0.63 | 0.63 | |||
| 20260505212016 | 52 | 0.0 | 0.0 | 0.20 | 0.63 | 0.63 | 89 | 1003.5 | |
| 20260505211016 | 52 | 0.0 | 0.0 | 0.20 | 0.59 | 0.59 | 88 | 1002.5 | |
| 20260505210016 | 53 | 0.0 | 0.0 | 0.16 | 0.51 | 0.51 | |||
| 20260505205015 | 53 | 0.0 | 0.0 | 0.20 | 0.51 | 0.51 | 88 | 1003.5 | |
| 20260505204016 | 52 | 0.0 | 0.0 | 0.20 | 0.47 | 0.47 | 88 | 1003.5 | |
| 20260505203016 | 52 | 0.0 | 0.0 | 0.27 | 0.43 | 0.43 | 88 | 1003.4 | |
| 20260505202017 | 53 | 0.0 | 0.0 | 0.35 | 0.43 | 0.43 | 87 | 1003.5 | |
| 20260505201017 | 54 | 0.0 | 0.0 | 0.32 | 0.39 | 0.39 | 87 | 1003.5 | |
| 20260505200016 | 54 | 0.0 | 0.0 | 0.28 | 0.35 | 0.35 | 86 | 1004.4 | |
| 20260505195016 | 54 | 0.0 | 0.0 | 0.24 | 0.32 | 0.32 | 85 | 1004.4 | |
| 20260505194017 | 54 | 213 | 0.9 | 0.9 | 0.20 | 0.28 | 0.28 | 84 | 1004.3 |
| 20260505193016 | 54 | 255 | 4.3 | 4.3 | 0.08 | 0.16 | 0.16 | 82 | 1004.3 |
| 20260505192016 | 58 | 228 | 2.6 | 2.6 | 0.00 | 0.08 | 0.08 | 80 | 1003.5 |
| 20260505191017 | 59 | 262 | 2.6 | 2.6 | 0.00 | 0.08 | 0.08 | 78 | 1003.2 |
| 20260505190017 | 59 | 244 | 0.9 | 0.9 | 0.00 | 0.08 | 0.08 | 76 | 1002.5 |
| 20260505185025 | 60 | 210 | 0.9 | 0.9 | 0.00 | 0.08 | 0.08 | 75 | 1002.6 |
| 20260505184016 | 61 | 237 | 0.9 | 0.9 | 0.00 | 0.08 | 0.08 | 74 | 1002.6 |
| 20260505183016 | 61 | 222 | 0.9 | 0.9 | 0.00 | 0.08 | 0.08 | 73 | 1002.6 |
| 20260505182017 | 61 | 180 | 0.9 | 0.9 | 0.00 | 0.08 | 0.08 | 73 | 1002.6 |
| 20260505181016 | 61 | 0.0 | 0.0 | 0.00 | 0.08 | 0.08 | 73 | 1002.6 | |
| 20260505180016 | 61 | 0.0 | 0.0 | 0.00 | 0.08 | 0.08 | 71 | 1002.6 | |
| 20260505175016 | 62 | 0.0 | 0.0 | 0.00 | 0.08 | 0.08 | 70 | 1002.6 | |
| 20260505174016 | 63 | 0.0 | 0.0 | 0.00 | 0.08 | 0.08 | 69 | 1002.6 | |
| 20260505173016 | 63 | 159 | 0.9 | 0.9 | 0.00 | 0.08 | 0.08 | 68 | 1002.6 |
| 20260505172015 | 63 | 0.0 | 0.0 | 0.00 | 0.08 | 0.08 | 68 | 1002.6 | |
| 20260505171016 | 63 | 203 | 3.5 | 3.5 | 0.00 | 0.08 | 0.08 | 67 | 1002.6 |
| 20260505170016 | 63 | 179 | 3.5 | 3.5 | 0.00 | 0.08 | 0.08 | 67 | 1002.6 |
| 20260505165016 | 64 | 169 | 0.9 | 0.9 | 0.00 | 0.08 | 0.08 | 68 | 1003.7 |
| 20260505164016 | 64 | 0.0 | 0.0 | 0.00 | 0.08 | 0.08 | 67 | 1003.7 | |
| 20260505163016 | 64 | 170 | 0.9 | 0.9 | 0.00 | 0.08 | 0.08 | 66 | 1003.7 |
| 20260505162016 | 64 | 215 | 0.9 | 0.9 | 0.00 | 0.08 | 0.08 | 66 | 1003.7 |
| 20260505161016 | 64 | 259 | 1.7 | 1.7 | 0.00 | 0.08 | 0.08 | 66 | 1003.7 |
| 20260505153017 | 65 | 304 | 0.9 | 0.9 | 0.00 | 0.08 | 0.08 | 67 | 1003.8 |
| 20260505152016 | 64 | 320 | 0.9 | 0.9 | 0.00 | 0.08 | 0.08 | 67 | 1003.7 |
| 20260505151017 | 65 | 353 | 0.9 | 0.9 | 0.00 | 0.08 | 0.08 | 66 | 1003.8 |
| 20260505125016 | 67 | 307 | 1.7 | 1.7 | 0.00 | 0.08 | 0.08 | 65 | 1005.0 |
| 20260505124016 | 67 | 342 | 1.7 | 1.7 | 0.00 | 0.08 | 0.08 | 65 | 1005.0 |
| 20260505123017 | 66 | 301 | 1.7 | 1.7 | 0.00 | 0.08 | 0.08 | 66 | 1005.9 |
| 20260505122016 | 66 | 319 | 1.7 | 1.7 | 0.00 | 0.08 | 0.08 | 67 | 1005.9 |
| 20260505121016 | 66 | 4 | 0.9 | 0.9 | 0.00 | 0.08 | 0.08 | 67 | 1005.9 |
| 20260505120016 | 66 | 346 | 0.9 | 0.9 | 0.00 | 0.08 | 0.08 | 67 | 1005.9 |
| 20260505115017 | 65 | 313 | 0.9 | 0.9 | 0.00 | 0.08 | 0.08 | 69 | 1005.9 |
| 20260505114017 | 66 | 350 | 0.9 | 0.9 | 0.00 | 0.08 | 0.08 | 69 | 1006.0 |
| 20260505113017 | 66 | 327 | 0.9 | 0.9 | 0.00 | 0.08 | 0.08 | 70 | 1006.0 |
| 20260505112017 | 65 | 282 | 0.9 | 0.9 | 0.00 | 0.08 | 0.08 | 70 | 1006.0 |
| 20260505111016 | 65 | 268 | 0.9 | 0.9 | 0.00 | 0.08 | 0.08 | 70 | 1006.0 |
| 20260505102017 | 61 | 0.0 | 0.0 | 0.00 | 0.08 | 0.08 | 77 | 1006.8 | |
| 20260505101018 | 61 | 0.0 | 0.0 | 0.00 | 0.08 | 0.08 | 77 | 1006.8 | |
| 20260505100017 | 61 | 218 | 0.9 | 0.9 | 0.00 | 0.08 | 0.08 | 76 | 1006.8 |
| 20260505095017 | 61 | 183 | 0.9 | 0.9 | 0.00 | 0.08 | 0.08 | 76 | 1006.8 |
| 20260505094017 | 61 | 0.0 | 0.0 | 0.00 | 0.08 | 0.08 | 76 | 1006.8 | |
| 20260505093017 | 61 | 0.0 | 0.0 | 0.00 | 0.08 | 0.08 | 77 | 1006.9 | |
| 20260505092017 | 61 | 0.0 | 0.0 | 0.00 | 0.08 | 0.08 | 77 | 1006.9 | |
| 20260505091017 | 62 | 0.0 | 0.0 | 0.00 | 0.08 | 0.08 | 77 | 1006.9 | |
| 20260505090016 | 62 | 0.0 | 0.0 | 0.00 | 0.08 | 0.08 | 76 | 1006.9 | |
| 20260505085017 | 61 | 0.0 | 0.0 | 0.00 | 0.08 | 0.08 | 78 | 1006.9 | |
| 20260505084017 | 60 | 172 | 0.9 | 0.9 | 0.00 | 0.08 | 0.08 | 78 | 1006.8 |
| 20260505083018 | 59 | 0.0 | 0.0 | 0.00 | 0.08 | 0.08 | 80 | 1006.7 | |
| 20260505082017 | 59 | 0.0 | 0.0 | 0.00 | 0.08 | 0.08 | 82 | 1006.8 | |
| 20260505081017 | 58 | 0.0 | 0.0 | 0.00 | 0.08 | 0.08 | 83 | 1006.7 | |
| 20260505080017 | 57 | 0.0 | 0.0 | 0.00 | 0.08 | 0.08 | 85 | 1006.7 | |
| 20260505075018 | 57 | 0.0 | 0.0 | 0.00 | 0.08 | 0.08 | 87 | 1006.6 | |
| 20260505074019 | 55 | 0.0 | 0.0 | 0.00 | 0.08 | 0.08 | 87 | 1006.6 | |
| 20260505073019 | 55 | 0.0 | 0.0 | 0.00 | 0.08 | 0.08 | 87 | 1006.6 | |
| 20260505072019 | 55 | 0.0 | 0.0 | 0.00 | 0.08 | 0.08 | 87 | 1006.7 | |
| 20260505071019 | 47 | 0.0 | 0.0 | 0.00 | 0.08 | 0.08 | 58 | 1006.3 | |
| 20260505064019 | 54 | 0.0 | 0.0 | 0.00 | 0.08 | 0.08 | 88 | 1006.7 | |
| 20260505063019 | 54 | 0.0 | 0.0 | 0.04 | 0.08 | 0.08 | 87 | 1006.7 | |
| 20260505062019 | 54 | 0.0 | 0.0 | 0.04 | 0.08 | 0.08 | 87 | 1006.8 | |
| 20260505061019 | 54 | 0.0 | 0.0 | 0.04 | 0.08 | 0.08 | 87 | 1007.7 | |
| 20260505060018 | 54 | 0.0 | 0.0 | 0.04 | 0.08 | 0.08 | 87 | 1007.7 |